Time,TemperatureF,DewpointF,PressureIn,WindDirection,WindDirectionDegrees,WindSpeedMPH,WindSpeedGustMPH,Humidity,HourlyPrecipIn,Conditions,Clouds,dailyrainin,SoftwareType,DateUTC
2013-04-02 00:00:00,59.0,14.2,29.83,NNE,13,0.0,0.0,17,0.00,,,0.00,Wunderground v.1.15,2013-04-02 06:00:00,
2013-04-02 00:05:00,59.0,14.2,29.83,NNE,13,0.0,0.0,17,0.00,,,0.00,Wunderground v.1.15,2013-04-02 06:05:00,
2013-04-02 00:10:00,58.7,13.9,29.83,NNE,13,0.0,0.0,17,0.00,,,0.00,Wunderground v.1.15,2013-04-02 06:10:00,
2013-04-02 00:15:00,58.5,15.1,29.83,NNE,13,0.0,0.0,18,0.00,,,0.00,Wunderground v.1.15,2013-04-02 06:15:00,
2013-04-02 00:25:00,57.8,14.5,29.83,NNE,13,0.0,0.0,18,0.00,,,0.00,Wunderground v.1.15,2013-04-02 06:25:00,
2013-04-02 00:30:00,57.4,15.4,29.83,NNE,13,0.0,1.0,19,0.00,,,0.00,Wunderground v.1.15,2013-04-02 06:30:00,
2013-04-02 00:35:00,57.0,15.1,29.83,NNE,13,0.0,1.0,19,0.00,,,0.00,Wunderground v.1.15,2013-04-02 06:35:00,
2013-04-02 00:45:00,56.2,15.6,29.83,NNE,13,0.0,0.0,20,0.00,,,0.00,Wunderground v.1.15,2013-04-02 06:45:00,
2013-04-02 00:50:00,55.7,15.2,29.83,NNE,13,0.0,0.0,20,0.00,,,0.00,Wunderground v.1.15,2013-04-02 06:50:00,
2013-04-02 01:00:00,55.1,15.8,29.83,NNE,13,0.0,0.0,21,0.00,,,0.00,Wunderground v.1.15,2013-04-02 07:00:00,
2013-04-02 01:10:00,54.4,15.2,29.83,NNE,13,0.0,0.0,21,0.00,,,0.00,Wunderground v.1.15,2013-04-02 07:10:00,
2013-04-02 01:15:00,54.2,16.1,29.83,NNE,13,0.0,0.0,22,0.00,,,0.00,Wunderground v.1.15,2013-04-02 07:15:00,
2013-04-02 01:20:00,53.9,15.9,29.83,NNE,13,0.0,1.0,22,0.00,,,0.00,Wunderground v.1.15,2013-04-02 07:20:00,
2013-04-02 01:25:00,54.9,16.7,29.83,North,360,1.0,1.0,22,0.00,,,0.00,Wunderground v.1.15,2013-04-02 07:25:00,
2013-04-02 01:30:00,56.0,16.6,29.83,North,360,1.0,1.0,21,0.00,,,0.00,Wunderground v.1.15,2013-04-02 07:30:00,
2013-04-02 01:35:00,56.4,16.9,29.83,North,360,0.0,1.0,21,0.00,,,0.00,Wunderground v.1.15,2013-04-02 07:35:00,
2013-04-02 01:45:00,56.1,16.6,29.83,North,360,0.0,0.0,21,0.00,,,0.00,Wunderground v.1.15,2013-04-02 07:45:00,
2013-04-02 01:50:00,55.7,17.4,29.83,North,360,0.0,0.0,22,0.00,,,0.00,Wunderground v.1.15,2013-04-02 07:50:00,
2013-04-02 01:55:00,55.3,17.0,29.83,North,360,0.0,0.0,22,0.00,,,0.00,Wunderground v.1.15,2013-04-02 07:55:00,
2013-04-02 02:00:00,55.0,16.8,29.83,North,360,0.0,0.0,22,0.00,,,0.00,Wunderground v.1.15,2013-04-02 08:00:00,
2013-04-02 02:05:00,54.7,16.5,29.83,North,360,0.0,0.0,22,0.00,,,0.00,Wunderground v.1.15,2013-04-02 08:05:00,
2013-04-02 02:10:00,54.5,17.4,29.83,North,360,0.0,0.0,23,0.00,,,0.00,Wunderground v.1.15,2013-04-02 08:10:00,
2013-04-02 02:15:00,54.2,17.1,29.83,North,360,0.0,0.0,23,0.00,,,0.00,Wunderground v.1.15,2013-04-02 08:15:00,
2013-04-02 02:25:00,53.6,16.6,29.83,North,360,0.0,0.0,23,0.00,,,0.00,Wunderground v.1.15,2013-04-02 08:25:00,
2013-04-02 02:30:00,53.2,17.3,29.83,North,360,0.0,0.0,24,0.00,,,0.00,Wunderground v.1.15,2013-04-02 08:30:00,
2013-04-02 02:35:00,52.9,17.0,29.83,North,360,0.0,0.0,24,0.00,,,0.00,Wunderground v.1.15,2013-04-02 08:35:00,
2013-04-02 02:40:00,52.5,16.7,29.83,North,360,0.0,0.0,24,0.00,,,0.00,Wunderground v.1.15,2013-04-02 08:40:00,
2013-04-02 02:50:00,52.2,16.4,29.83,North,360,0.0,0.0,24,0.00,,,0.00,Wunderground v.1.15,2013-04-02 08:50:00,
2013-04-02 03:00:00,51.9,16.2,29.83,North,360,0.0,0.0,24,0.00,,,0.00,Wunderground v.1.15,2013-04-02 09:00:00,
2013-04-02 03:05:00,51.8,17.0,29.83,North,360,0.0,0.0,25,0.00,,,0.00,Wunderground v.1.15,2013-04-02 09:05:00,
2013-04-02 03:10:00,51.7,17.0,29.83,North,360,0.0,0.0,25,0.00,,,0.00,Wunderground v.1.15,2013-04-02 09:10:00,
2013-04-02 03:15:00,51.8,17.0,29.83,North,360,0.0,0.0,25,0.00,,,0.00,Wunderground v.1.15,2013-04-02 09:15:00,
2013-04-02 03:20:00,51.5,16.8,29.83,North,360,0.0,0.0,25,0.00,,,0.00,Wunderground v.1.15,2013-04-02 09:20:00,
2013-04-02 03:25:00,51.1,16.4,29.83,North,360,0.0,0.0,25,0.00,,,0.00,Wunderground v.1.15,2013-04-02 09:25:00,
2013-04-02 03:30:00,50.7,17.0,29.83,North,360,0.0,0.0,26,0.00,,,0.00,Wunderground v.1.15,2013-04-02 09:30:00,
2013-04-02 03:35:00,50.2,16.6,29.83,North,360,0.0,0.0,26,0.00,,,0.00,Wunderground v.1.15,2013-04-02 09:35:00,
2013-04-02 03:45:00,49.5,16.0,29.84,North,360,0.0,0.0,26,0.00,,,0.00,Wunderground v.1.15,2013-04-02 09:45:00,
2013-04-02 03:50:00,49.3,16.7,29.83,North,360,0.0,0.0,27,0.00,,,0.00,Wunderground v.1.15,2013-04-02 09:50:00,
2013-04-02 03:55:00,49.1,16.5,29.83,North,360,0.0,0.0,27,0.00,,,0.00,Wunderground v.1.15,2013-04-02 09:55:00,
2013-04-02 04:00:00,49.2,16.6,29.83,NNW,335,0.0,0.0,27,0.00,,,0.00,Wunderground v.1.15,2013-04-02 10:00:00,
2013-04-02 04:05:00,50.2,16.6,29.83,WNW,299,1.0,2.0,26,0.00,,,0.00,Wunderground v.1.15,2013-04-02 10:05:00,
2013-04-02 04:10:00,51.4,16.7,29.83,WNW,294,1.0,2.0,25,0.00,,,0.00,Wunderground v.1.15,2013-04-02 10:10:00,
2013-04-02 04:15:00,52.2,16.4,29.83,West,272,2.0,2.0,24,0.00,,,0.00,Wunderground v.1.15,2013-04-02 10:15:00,
2013-04-02 04:20:00,52.4,16.6,29.83,West,272,1.0,1.0,24,0.00,,,0.00,Wunderground v.1.15,2013-04-02 10:20:00,
2013-04-02 04:25:00,52.3,16.5,29.83,West,272,0.0,1.0,24,0.00,,,0.00,Wunderground v.1.15,2013-04-02 10:25:00,
2013-04-02 04:30:00,52.0,16.3,29.83,West,272,0.0,0.0,24,0.00,,,0.00,Wunderground v.1.15,2013-04-02 10:30:00,
2013-04-02 04:35:00,51.7,16.0,29.84,West,272,0.0,0.0,24,0.00,,,0.00,Wunderground v.1.15,2013-04-02 10:35:00,
2013-04-02 04:40:00,51.4,15.8,29.84,West,272,0.0,0.0,24,0.00,,,0.00,Wunderground v.1.15,2013-04-02 10:40:00,
2013-04-02 04:45:00,51.0,16.4,29.84,West,272,0.0,0.0,25,0.00,,,0.00,Wunderground v.1.15,2013-04-02 10:45:00,
2013-04-02 04:50:00,50.6,15.1,29.83,West,272,0.0,0.0,24,0.00,,,0.00,Wunderground v.1.15,2013-04-02 10:50:00,
2013-04-02 04:55:00,50.2,15.7,29.83,West,272,0.0,0.0,25,0.00,,,0.00,Wunderground v.1.15,2013-04-02 10:55:00,
2013-04-02 05:00:00,49.7,16.2,29.84,West,272,0.0,0.0,26,0.00,,,0.00,Wunderground v.1.15,2013-04-02 11:00:00,
2013-04-02 05:05:00,49.3,14.9,29.83,West,272,0.0,0.0,25,0.00,,,0.00,Wunderground v.1.15,2013-04-02 11:05:00,
2013-04-02 05:10:00,48.8,15.4,29.83,West,272,0.0,0.0,26,0.00,,,0.00,Wunderground v.1.15,2013-04-02 11:10:00,
2013-04-02 05:15:00,48.4,15.0,29.84,West,272,0.0,0.0,26,0.00,,,0.00,Wunderground v.1.15,2013-04-02 11:15:00,
2013-04-02 05:20:00,48.2,14.9,29.84,West,272,0.0,0.0,26,0.00,,,0.00,Wunderground v.1.15,2013-04-02 11:20:00,
2013-04-02 05:25:00,48.3,14.1,29.84,West,272,0.0,0.0,25,0.00,,,0.00,Wunderground v.1.15,2013-04-02 11:25:00,
2013-04-02 05:30:00,48.4,15.0,29.84,West,272,0.0,0.0,26,0.00,,,0.00,Wunderground v.1.15,2013-04-02 11:30:00,
2013-04-02 05:35:00,48.5,15.1,29.84,West,271,0.0,0.0,26,0.00,,,0.00,Wunderground v.1.15,2013-04-02 11:35:00,
2013-04-02 05:40:00,48.8,14.5,29.84,West,271,0.0,0.0,25,0.00,,,0.00,Wunderground v.1.15,2013-04-02 11:40:00,
2013-04-02 05:45:00,48.9,14.6,29.84,West,271,0.0,0.0,25,0.00,,,0.00,Wunderground v.1.15,2013-04-02 11:45:00,
2013-04-02 05:50:00,48.6,14.3,29.84,West,271,0.0,0.0,25,0.00,,,0.00,Wunderground v.1.15,2013-04-02 11:50:00,
2013-04-02 06:00:00,48.1,14.8,29.85,West,271,0.0,0.0,26,0.00,,,0.00,Wunderground v.1.15,2013-04-02 12:00:00,
2013-04-02 06:05:00,47.9,14.6,29.84,West,271,0.0,0.0,26,0.00,,,0.00,Wunderground v.1.15,2013-04-02 12:05:00,
2013-04-02 06:10:00,47.8,14.5,29.85,West,271,0.0,0.0,26,0.00,,,0.00,Wunderground v.1.15,2013-04-02 12:10:00,
2013-04-02 06:15:00,47.9,14.6,29.85,West,271,0.0,0.0,26,0.00,,,0.00,Wunderground v.1.15,2013-04-02 12:15:00,
2013-04-02 06:25:00,47.7,14.4,29.84,West,271,0.0,0.0,26,0.00,,,0.00,Wunderground v.1.15,2013-04-02 12:25:00,
2013-04-02 06:30:00,47.4,15.0,29.84,West,271,0.0,0.0,27,0.00,,,0.00,Wunderground v.1.15,2013-04-02 12:30:00,
2013-04-02 06:35:00,47.2,14.9,29.84,West,271,0.0,0.0,27,0.00,,,0.00,Wunderground v.1.15,2013-04-02 12:35:00,
2013-04-02 06:40:00,46.9,14.6,29.84,West,271,0.0,0.0,27,0.00,,,0.00,Wunderground v.1.15,2013-04-02 12:40:00,
2013-04-02 06:45:00,46.6,14.4,29.85,West,271,0.0,0.0,27,0.00,,,0.00,Wunderground v.1.15,2013-04-02 12:45:00,
2013-04-02 06:50:00,46.2,14.8,29.85,West,271,0.0,0.0,28,0.00,,,0.00,Wunderground v.1.15,2013-04-02 12:50:00,
2013-04-02 06:55:00,45.9,14.6,29.85,West,271,0.0,0.0,28,0.00,,,0.00,Wunderground v.1.15,2013-04-02 12:55:00,
2013-04-02 07:00:00,45.5,15.0,29.86,West,271,0.0,0.0,29,0.00,,,0.00,Wunderground v.1.15,2013-04-02 13:00:00,
2013-04-02 07:05:00,45.3,14.9,29.86,West,271,0.0,0.0,29,0.00,,,0.00,Wunderground v.1.15,2013-04-02 13:05:00,
2013-04-02 07:15:00,44.9,14.5,29.86,West,271,0.0,0.0,29,0.00,,,0.00,Wunderground v.1.15,2013-04-02 13:15:00,
2013-04-02 07:20:00,44.9,15.3,29.85,West,271,0.0,0.0,30,0.00,,,0.00,Wunderground v.1.15,2013-04-02 13:20:00,
2013-04-02 07:25:00,44.8,15.2,29.85,West,271,0.0,0.0,30,0.00,,,0.00,Wunderground v.1.15,2013-04-02 13:25:00,
2013-04-02 07:30:00,44.5,15.7,29.86,West,271,0.0,1.0,31,0.00,,,0.00,Wunderground v.1.15,2013-04-02 13:30:00,
2013-04-02 07:35:00,44.3,15.5,29.86,West,271,0.0,1.0,31,0.00,,,0.00,Wunderground v.1.15,2013-04-02 13:35:00,
2013-04-02 07:40:00,44.2,15.4,29.86,West,271,0.0,0.0,31,0.00,,,0.00,Wunderground v.1.15,2013-04-02 13:40:00,
2013-04-02 07:50:00,46.2,15.6,29.86,West,271,0.0,0.0,29,0.00,,,0.00,Wunderground v.1.15,2013-04-02 13:50:00,
2013-04-02 07:55:00,47.1,15.6,29.86,West,271,0.0,0.0,28,0.00,,,0.00,Wunderground v.1.15,2013-04-02 13:55:00,
2013-04-02 08:00:00,48.1,14.8,29.86,West,271,0.0,0.0,26,0.00,,,0.00,Wunderground v.1.15,2013-04-02 14:00:00,
2013-04-02 08:05:00,48.8,14.5,29.87,West,271,0.0,0.0,25,0.00,,,0.00,Wunderground v.1.15,2013-04-02 14:05:00,
2013-04-02 08:10:00,49.5,15.1,29.87,West,271,0.0,0.0,25,0.00,,,0.00,Wunderground v.1.15,2013-04-02 14:10:00,
2013-04-02 08:15:00,50.2,14.7,29.87,West,271,0.0,0.0,24,0.00,,,0.00,Wunderground v.1.15,2013-04-02 14:15:00,
2013-04-02 08:20:00,50.9,15.3,29.87,West,271,0.0,1.0,24,0.00,,,0.00,Wunderground v.1.15,2013-04-02 14:20:00,
2013-04-02 08:25:00,51.8,16.1,29.87,West,271,0.0,1.0,24,0.00,,,0.00,Wunderground v.1.15,2013-04-02 14:25:00,
2013-04-02 08:30:00,52.6,15.8,29.87,WSW,238,1.0,3.0,23,0.00,,,0.00,Wunderground v.1.15,2013-04-02 14:30:00,
2013-04-02 08:35:00,52.9,17.0,29.87,SW,217,1.0,3.0,24,0.00,,,0.00,Wunderground v.1.15,2013-04-02 14:35:00,
2013-04-02 08:45:00,53.7,16.7,29.87,SW,217,1.0,2.0,23,0.00,,,0.00,Wunderground v.1.15,2013-04-02 14:45:00,
2013-04-02 08:50:00,54.4,17.3,29.87,SSW,204,1.0,1.0,23,0.00,,,0.00,Wunderground v.1.15,2013-04-02 14:50:00,
2013-04-02 08:55:00,54.9,17.7,29.87,SSW,204,1.0,1.0,23,0.00,,,0.00,Wunderground v.1.15,2013-04-02 14:55:00,
2013-04-02 09:00:00,55.4,17.1,29.87,SSW,204,0.0,2.0,22,0.00,,,0.00,Wunderground v.1.15,2013-04-02 15:00:00,
2013-04-02 09:05:00,55.5,17.2,29.87,SSW,201,1.0,4.0,22,0.00,,,0.00,Wunderground v.1.15,2013-04-02 15:05:00,
2013-04-02 09:10:00,55.9,17.6,29.87,South,184,1.0,4.0,22,0.00,,,0.00,Wunderground v.1.15,2013-04-02 15:10:00,
2013-04-02 09:15:00,56.3,17.9,29.86,South,180,1.0,4.0,22,0.00,,,0.00,Wunderground v.1.15,2013-04-02 15:15:00,
2013-04-02 09:20:00,56.8,16.1,29.86,South,178,1.0,1.0,20,0.00,,,0.00,Wunderground v.1.15,2013-04-02 15:20:00,
2013-04-02 09:30:00,57.3,16.5,29.87,South,175,1.0,1.0,20,0.00,,,0.00,Wunderground v.1.15,2013-04-02 15:30:00,
2013-04-02 09:35:00,57.7,16.8,29.87,SSW,202,1.0,1.0,20,0.00,,,0.00,Wunderground v.1.15,2013-04-02 15:35:00,
2013-04-02 09:40:00,57.7,16.8,29.87,SW,236,2.0,3.0,20,0.00,,,0.00,Wunderground v.1.15,2013-04-02 15:40:00,
2013-04-02 09:45:00,57.7,15.7,29.87,SW,229,2.0,3.0,19,0.00,,,0.00,Wunderground v.1.15,2013-04-02 15:45:00,
2013-04-02 09:50:00,57.9,17.0,29.87,WSW,240,2.0,2.0,20,0.00,,,0.00,Wunderground v.1.15,2013-04-02 15:50:00,
2013-04-02 09:55:00,57.9,17.0,29.87,SSW,205,2.0,6.0,20,0.00,,,0.00,Wunderground v.1.15,2013-04-02 15:55:00,
2013-04-02 10:05:00,58.5,16.3,29.86,SSW,203,2.0,3.0,19,0.00,,,0.00,Wunderground v.1.15,2013-04-02 16:05:00,
2013-04-02 10:10:00,58.4,16.2,29.86,SSW,193,2.0,2.0,19,0.00,,,0.00,Wunderground v.1.15,2013-04-02 16:10:00,
2013-04-02 10:15:00,58.9,16.7,29.86,SSW,201,2.0,2.0,19,0.00,,,0.00,Wunderground v.1.15,2013-04-02 16:15:00,
2013-04-02 10:20:00,59.0,17.9,29.86,SSW,205,1.0,1.0,20,0.00,,,0.00,Wunderground v.1.15,2013-04-02 16:20:00,
2013-04-02 10:25:00,59.8,18.6,29.86,SSW,205,1.0,1.0,20,0.00,,,0.00,Wunderground v.1.15,2013-04-02 16:25:00,
2013-04-02 10:30:00,60.6,18.1,29.86,SSW,202,1.0,5.0,19,0.00,,,0.00,Wunderground v.1.15,2013-04-02 16:30:00,
2013-04-02 10:35:00,60.4,17.9,29.85,South,184,2.0,5.0,19,0.00,,,0.00,Wunderground v.1.15,2013-04-02 16:35:00,
2013-04-02 10:40:00,60.2,17.7,29.85,South,180,2.0,2.0,19,0.00,,,0.00,Wunderground v.1.15,2013-04-02 16:40:00,
2013-04-02 10:45:00,60.5,18.0,29.85,SSW,197,2.0,7.0,19,0.00,,,0.00,Wunderground v.1.15,2013-04-02 16:45:00,
2013-04-02 10:50:00,60.9,17.0,29.85,SSW,198,2.0,2.0,18,0.00,,,0.00,Wunderground v.1.15,2013-04-02 16:50:00,
2013-04-02 10:55:00,61.1,17.2,29.85,SW,216,3.0,6.0,18,0.00,,,0.00,Wunderground v.1.15,2013-04-02 16:55:00,
2013-04-02 11:00:00,60.8,18.2,29.85,SSW,201,3.0,3.0,19,0.00,,,0.00,Wunderground v.1.15,2013-04-02 17:00:00,
2013-04-02 11:05:00,61.4,18.7,29.85,South,183,2.0,3.0,19,0.00,,,0.00,Wunderground v.1.15,2013-04-02 17:05:00,
2013-04-02 11:10:00,61.6,17.6,29.85,SSW,207,2.0,3.0,18,0.00,,,0.00,Wunderground v.1.15,2013-04-02 17:10:00,
2013-04-02 11:15:00,61.7,17.7,29.84,SSW,210,3.0,3.0,18,0.00,,,0.00,Wunderground v.1.15,2013-04-02 17:15:00,
2013-04-02 11:20:00,62.2,16.8,29.84,SSW,210,2.0,2.0,17,0.00,,,0.00,Wunderground v.1.15,2013-04-02 17:20:00,
2013-04-02 11:25:00,63.1,14.6,29.84,SW,227,2.0,6.0,15,0.00,,,0.00,Wunderground v.1.15,2013-04-02 17:25:00,
2013-04-02 11:30:00,62.7,12.7,29.84,SSW,205,4.0,4.0,14,0.00,,,0.00,Wunderground v.1.15,2013-04-02 17:30:00,
2013-04-02 11:35:00,63.1,16.1,29.84,SSW,198,3.0,4.0,16,0.00,,,0.00,Wunderground v.1.15,2013-04-02 17:35:00,
2013-04-02 11:40:00,63.9,15.3,29.83,SW,219,1.0,2.0,15,0.00,,,0.00,Wunderground v.1.15,2013-04-02 17:40:00,
2013-04-02 11:45:00,64.2,15.5,29.83,SSW,205,2.0,2.0,15,0.00,,,0.00,Wunderground v.1.15,2013-04-02 17:45:00,
2013-04-02 11:55:00,64.0,15.4,29.83,WNW,283,2.0,3.0,15,0.00,,,0.00,Wunderground v.1.15,2013-04-02 17:55:00,
2013-04-02 12:00:00,64.4,14.1,29.82,SW,226,3.0,3.0,14,0.00,,,0.00,Wunderground v.1.15,2013-04-02 18:00:00,
2013-04-02 12:05:00,64.6,14.3,29.82,SSW,205,4.0,6.0,14,0.00,,,0.00,Wunderground v.1.15,2013-04-02 18:05:00,
2013-04-02 12:15:00,64.6,15.8,29.82,South,169,4.0,5.0,15,0.00,,,0.00,Wunderground v.1.15,2013-04-02 18:15:00,
2013-04-02 12:20:00,64.3,14.0,29.82,South,186,3.0,3.0,14,0.00,,,0.00,Wunderground v.1.15,2013-04-02 18:20:00,
2013-04-02 12:25:00,64.7,15.9,29.81,SW,217,2.0,5.0,15,0.00,,,0.00,Wunderground v.1.15,2013-04-02 18:25:00,
2013-04-02 12:30:00,65.2,14.7,29.81,South,171,2.0,2.0,14,0.00,,,0.00,Wunderground v.1.15,2013-04-02 18:30:00,
2013-04-02 12:35:00,65.6,15.1,29.81,SSW,198,2.0,2.0,14,0.00,,,0.00,Wunderground v.1.15,2013-04-02 18:35:00,
2013-04-02 12:45:00,66.4,15.7,29.80,South,188,3.0,9.0,14,0.00,,,0.00,Wunderground v.1.15,2013-04-02 18:45:00,
2013-04-02 12:50:00,66.2,13.8,29.80,SW,224,4.0,4.0,13,0.00,,,0.00,Wunderground v.1.15,2013-04-02 18:50:00,
2013-04-02 12:55:00,66.3,13.9,29.80,SW,227,5.0,5.0,13,0.00,,,0.00,Wunderground v.1.15,2013-04-02 18:55:00,
2013-04-02 13:00:00,66.5,14.1,29.80,WSW,244,4.0,5.0,13,0.00,,,0.00,Wunderground v.1.15,2013-04-02 19:00:00,
2013-04-02 13:10:00,66.8,14.3,29.79,SW,227,4.0,4.0,13,0.00,,,0.00,Wunderground v.1.15,2013-04-02 19:10:00,
2013-04-02 13:20:00,67.1,12.7,29.78,SE,124,3.0,3.0,12,0.00,,,0.00,Wunderground v.1.15,2013-04-02 19:20:00,
2013-04-02 13:30:00,67.8,13.3,29.78,WSW,238,3.0,12.0,12,0.00,,,0.00,Wunderground v.1.15,2013-04-02 19:30:00,
2013-04-02 13:35:00,68.2,13.6,29.78,WNW,294,3.0,12.0,12,0.00,,,0.00,Wunderground v.1.15,2013-04-02 19:35:00,
2013-04-02 13:40:00,68.2,13.6,29.77,SW,223,3.0,3.0,12,0.00,,,0.00,Wunderground v.1.15,2013-04-02 19:40:00,
2013-04-02 13:45:00,67.8,15.1,29.77,WSW,246,4.0,4.0,13,0.00,,,0.00,Wunderground v.1.15,2013-04-02 19:45:00,
2013-04-02 13:55:00,68.2,13.6,29.77,SW,221,3.0,4.0,12,0.00,,,0.00,Wunderground v.1.15,2013-04-02 19:55:00,
2013-04-02 14:05:00,68.2,15.4,29.76,NW,311,3.0,4.0,13,0.00,,,0.00,Wunderground v.1.15,2013-04-02 20:05:00,
2013-04-02 14:10:00,68.5,13.8,29.76,SSE,153,3.0,3.0,12,0.00,,,0.00,Wunderground v.1.15,2013-04-02 20:10:00,
2013-04-02 14:20:00,67.2,12.8,29.75,SW,219,2.0,2.0,12,0.00,,,0.00,Wunderground v.1.15,2013-04-02 20:20:00,
2013-04-02 14:25:00,66.7,12.4,29.75,SE,140,0.0,2.0,12,0.00,,,0.00,Wunderground v.1.15,2013-04-02 20:25:00,
2013-04-02 14:30:00,66.2,12.0,29.74,SE,143,0.0,6.0,12,0.00,,,0.00,Wunderground v.1.15,2013-04-02 20:30:00,
2013-04-02 14:35:00,65.5,13.3,29.74,NW,320,2.0,6.0,13,0.00,,,0.00,Wunderground v.1.15,2013-04-02 20:35:00,
2013-04-02 14:40:00,65.3,13.1,29.74,SSW,201,3.0,3.0,13,0.00,,,0.00,Wunderground v.1.15,2013-04-02 20:40:00,
2013-04-02 14:45:00,65.3,13.1,29.74,South,190,2.0,3.0,13,0.00,,,0.00,Wunderground v.1.15,2013-04-02 20:45:00,
2013-04-02 14:50:00,65.3,13.1,29.74,South,190,1.0,1.0,13,0.00,,,0.00,Wunderground v.1.15,2013-04-02 20:50:00,
2013-04-02 14:55:00,65.3,13.1,29.74,South,179,1.0,3.0,13,0.00,,,0.00,Wunderground v.1.15,2013-04-02 20:55:00,
2013-04-02 15:00:00,65.1,13.0,29.74,South,171,1.0,1.0,13,0.00,,,0.00,Wunderground v.1.15,2013-04-02 21:00:00,
2013-04-02 15:05:00,65.0,12.9,29.73,South,171,1.0,1.0,13,0.00,,,0.00,Wunderground v.1.15,2013-04-02 21:05:00,
2013-04-02 15:10:00,65.1,13.0,29.74,SSE,161,1.0,2.0,13,0.00,,,0.00,Wunderground v.1.15,2013-04-02 21:10:00,
2013-04-02 15:15:00,65.2,13.0,29.73,SE,132,2.0,2.0,13,0.00,,,0.00,Wunderground v.1.15,2013-04-02 21:15:00,
2013-04-02 15:20:00,65.3,13.1,29.73,ESE,112,2.0,5.0,13,0.00,,,0.00,Wunderground v.1.15,2013-04-02 21:20:00,
2013-04-02 15:25:00,65.2,13.0,29.73,South,188,3.0,5.0,13,0.00,,,0.00,Wunderground v.1.15,2013-04-02 21:25:00,
2013-04-02 15:30:00,65.4,13.2,29.72,SE,125,3.0,3.0,13,0.00,,,0.00,Wunderground v.1.15,2013-04-02 21:30:00,
2013-04-02 15:35:00,65.4,13.2,29.73,SSE,155,2.0,3.0,13,0.00,,,0.00,Wunderground v.1.15,2013-04-02 21:35:00,
2013-04-02 15:50:00,65.1,13.0,29.72,SSW,199,2.0,2.0,13,0.00,,,0.00,Wunderground v.1.15,2013-04-02 21:50:00,
2013-04-02 15:55:00,65.0,12.9,29.73,South,183,2.0,2.0,13,0.00,,,0.00,Wunderground v.1.15,2013-04-02 21:55:00,
2013-04-02 16:00:00,65.1,13.0,29.72,SE,135,2.0,2.0,13,0.00,,,0.00,Wunderground v.1.15,2013-04-02 22:00:00,
2013-04-02 16:05:00,65.3,13.1,29.72,SSW,200,2.0,5.0,13,0.00,,,0.00,Wunderground v.1.15,2013-04-02 22:05:00,
2013-04-02 16:10:00,65.4,13.2,29.72,ESE,121,2.0,3.0,13,0.00,,,0.00,Wunderground v.1.15,2013-04-02 22:10:00,
2013-04-02 16:15:00,65.7,13.4,29.72,SSE,150,2.0,3.0,13,0.00,,,0.00,Wunderground v.1.15,2013-04-02 22:15:00,
2013-04-02 16:20:00,66.5,14.1,29.72,WSW,238,2.0,4.0,13,0.00,,,0.00,Wunderground v.1.15,2013-04-02 22:20:00,
2013-04-02 16:25:00,67.5,13.0,29.72,South,187,3.0,4.0,12,0.00,,,0.00,Wunderground v.1.15,2013-04-02 22:25:00,
2013-04-02 16:30:00,67.6,13.1,29.71,SSW,198,3.0,10.0,12,0.00,,,0.00,Wunderground v.1.15,2013-04-02 22:30:00,
2013-04-02 16:35:00,67.8,11.3,29.71,South,190,3.0,10.0,11,0.00,,,0.00,Wunderground v.1.15,2013-04-02 22:35:00,
2013-04-02 16:40:00,68.0,4.4,29.71,West,276,3.0,5.0,8,0.00,,,0.00,Wunderground v.1.15,2013-04-02 22:40:00,
2013-04-02 16:45:00,67.9,4.3,29.72,WNW,303,5.0,5.0,8,0.00,,,0.00,Wunderground v.1.15,2013-04-02 22:45:00,
2013-04-02 16:50:00,67.4,3.9,29.72,NW,312,6.0,6.0,8,0.00,,,0.00,Wunderground v.1.15,2013-04-02 22:50:00,
2013-04-02 16:55:00,66.9,3.6,29.71,WNW,286,6.0,9.0,8,0.00,,,0.00,Wunderground v.1.15,2013-04-02 22:55:00,
2013-04-02 17:05:00,66.1,17.0,29.72,NW,325,7.0,10.0,15,0.00,,,0.00,Wunderground v.1.15,2013-04-02 23:05:00,
2013-04-02 17:15:00,65.3,17.9,29.74,NW,306,9.0,11.0,16,0.00,,,0.00,Wunderground v.1.15,2013-04-02 23:15:00,
2013-04-02 17:20:00,65.2,17.8,29.74,NW,312,9.0,9.0,16,0.00,,,0.00,Wunderground v.1.15,2013-04-02 23:20:00,
2013-04-02 17:25:00,64.7,17.4,29.75,WNW,302,8.0,9.0,16,0.00,,,0.00,Wunderground v.1.15,2013-04-02 23:25:00,
2013-04-02 17:30:00,64.8,18.9,29.75,WNW,292,7.0,10.0,17,0.00,,,0.00,Wunderground v.1.15,2013-04-02 23:30:00,
2013-04-02 17:35:00,64.2,18.4,29.76,NNW,330,7.0,12.0,17,0.00,,,0.00,Wunderground v.1.15,2013-04-02 23:35:00,
2013-04-02 17:40:00,63.6,19.3,29.76,NNW,332,8.0,8.0,18,0.00,,,0.00,Wunderground v.1.15,2013-04-02 23:40:00,
2013-04-02 17:45:00,63.4,17.8,29.76,NW,319,6.0,8.0,17,0.00,,,0.00,Wunderground v.1.15,2013-04-02 23:45:00,
2013-04-02 17:50:00,63.3,19.0,29.76,North,360,5.0,12.0,18,0.00,,,0.00,Wunderground v.1.15,2013-04-02 23:50:00,
2013-04-02 17:55:00,63.4,19.1,29.76,ESE,104,5.0,12.0,18,0.00,,,0.00,Wunderground v.1.15,2013-04-02 23:55:00,
2013-04-02 18:00:00,63.3,19.0,29.77,North,355,6.0,13.0,18,0.00,,,0.00,Wunderground v.1.15,2013-04-03 00:00:00,
2013-04-02 18:10:00,62.1,19.3,29.77,NE,38,7.0,7.0,19,0.00,,,0.00,Wunderground v.1.15,2013-04-03 00:10:00,
2013-04-02 18:20:00,61.0,19.6,29.78,NNE,27,7.0,11.0,20,0.00,,,0.00,Wunderground v.1.15,2013-04-03 00:20:00,
2013-04-02 18:25:00,60.8,19.4,29.78,North,5,7.0,11.0,20,0.00,,,0.00,Wunderground v.1.15,2013-04-03 00:25:00,
2013-04-02 18:30:00,60.6,20.4,29.78,North,9,6.0,6.0,21,0.00,,,0.00,Wunderground v.1.15,2013-04-03 00:30:00,
2013-04-02 18:35:00,60.2,20.1,29.78,NNE,26,6.0,6.0,21,0.00,,,0.00,Wunderground v.1.15,2013-04-03 00:35:00,
2013-04-02 18:40:00,60.1,20.0,29.78,NNE,21,5.0,5.0,21,0.00,,,0.00,Wunderground v.1.15,2013-04-03 00:40:00,
2013-04-02 18:50:00,59.6,19.6,29.79,NNE,30,6.0,6.0,21,0.00,,,0.00,Wunderground v.1.15,2013-04-03 00:50:00,
2013-04-02 18:55:00,59.2,20.3,29.79,North,355,5.0,6.0,22,0.00,,,0.00,Wunderground v.1.15,2013-04-03 00:55:00,
2013-04-02 19:00:00,59.0,20.2,29.79,North,355,5.0,5.0,22,0.00,,,0.00,Wunderground v.1.15,2013-04-03 01:00:00,
2013-04-02 19:05:00,59.0,20.2,29.80,NNW,344,5.0,5.0,22,0.00,,,0.00,Wunderground v.1.15,2013-04-03 01:05:00,
2013-04-02 19:15:00,58.8,18.9,29.81,NNW,344,5.0,11.0,21,0.00,,,0.00,Wunderground v.1.15,2013-04-03 01:15:00,
2013-04-02 19:20:00,58.7,18.8,29.81,NNE,26,4.0,4.0,21,0.00,,,0.00,Wunderground v.1.15,2013-04-03 01:20:00,
2013-04-02 19:30:00,58.5,17.5,29.82,NW,319,5.0,12.0,20,0.00,,,0.00,Wunderground v.1.15,2013-04-03 01:30:00,
2013-04-02 19:35:00,58.4,17.4,29.82,NW,326,4.0,12.0,20,0.00,,,0.00,Wunderground v.1.15,2013-04-03 01:35:00,
2013-04-02 19:40:00,58.2,17.3,29.83,West,281,3.0,3.0,20,0.00,,,0.00,Wunderground v.1.15,2013-04-03 01:40:00,
2013-04-02 19:45:00,58.2,18.4,29.83,NW,324,3.0,3.0,21,0.00,,,0.00,Wunderground v.1.15,2013-04-03 01:45:00,
2013-04-02 19:50:00,58.1,18.3,29.84,NNW,344,3.0,3.0,21,0.00,,,0.00,Wunderground v.1.15,2013-04-03 01:50:00,
2013-04-02 19:55:00,58.0,18.2,29.84,NW,305,3.0,3.0,21,0.00,,,0.00,Wunderground v.1.15,2013-04-03 01:55:00,
2013-04-02 20:00:00,57.8,19.1,29.85,NNE,25,3.0,4.0,22,0.00,,,0.00,Wunderground v.1.15,2013-04-03 02:00:00,
2013-04-02 20:05:00,57.7,19.1,29.85,NNE,20,2.0,6.0,22,0.00,,,0.00,Wunderground v.1.15,2013-04-03 02:05:00,
2013-04-02 20:10:00,57.3,18.7,29.85,NNW,336,3.0,3.0,22,0.00,,,0.00,Wunderground v.1.15,2013-04-03 02:10:00,
2013-04-02 20:15:00,57.1,19.6,29.86,NNE,26,3.0,3.0,23,0.00,,,0.00,Wunderground v.1.15,2013-04-03 02:15:00,
2013-04-02 20:20:00,56.9,19.4,29.86,NNE,15,2.0,3.0,23,0.00,,,0.00,Wunderground v.1.15,2013-04-03 02:20:00,
2013-04-02 20:25:00,56.8,19.3,29.86,NNW,330,2.0,3.0,23,0.00,,,0.00,Wunderground v.1.15,2013-04-03 02:25:00,
2013-04-02 20:30:00,56.7,19.3,29.87,NNW,329,2.0,2.0,23,0.00,,,0.00,Wunderground v.1.15,2013-04-03 02:30:00,
2013-04-02 20:35:00,56.6,19.2,29.87,NE,51,2.0,2.0,23,0.00,,,0.00,Wunderground v.1.15,2013-04-03 02:35:00,
2013-04-02 20:40:00,56.5,19.1,29.87,NNE,24,2.0,2.0,23,0.00,,,0.00,Wunderground v.1.15,2013-04-03 02:40:00,
2013-04-02 20:50:00,56.3,19.9,29.88,NNE,18,3.0,3.0,24,0.00,,,0.00,Wunderground v.1.15,2013-04-03 02:50:00,
2013-04-02 20:55:00,56.2,19.8,29.88,North,5,4.0,5.0,24,0.00,,,0.00,Wunderground v.1.15,2013-04-03 02:55:00,
2013-04-02 21:00:00,56.0,19.7,29.89,NNW,342,4.0,4.0,24,0.00,,,0.00,Wunderground v.1.15,2013-04-03 03:00:00,
2013-04-02 21:05:00,55.9,19.6,29.90,NNE,17,3.0,4.0,24,0.00,,,0.00,Wunderground v.1.15,2013-04-03 03:05:00,
2013-04-02 21:10:00,55.8,19.5,29.90,NNW,345,3.0,3.0,24,0.00,,,0.00,Wunderground v.1.15,2013-04-03 03:10:00,
2013-04-02 21:20:00,55.7,19.4,29.90,North,355,2.0,4.0,24,0.00,,,0.00,Wunderground v.1.15,2013-04-03 03:20:00,
2013-04-02 21:25:00,55.7,20.4,29.91,NW,314,3.0,4.0,25,0.00,,,0.00,Wunderground v.1.15,2013-04-03 03:25:00,
2013-04-02 21:30:00,55.6,20.3,29.91,NNW,346,2.0,2.0,25,0.00,,,0.00,Wunderground v.1.15,2013-04-03 03:30:00,
2013-04-02 21:35:00,55.5,20.2,29.91,NNW,338,2.0,2.0,25,0.00,,,0.00,Wunderground v.1.15,2013-04-03 03:35:00,
2013-04-02 21:40:00,55.5,20.2,29.91,NNE,12,2.0,9.0,25,0.00,,,0.00,Wunderground v.1.15,2013-04-03 03:40:00,
2013-04-02 21:45:00,55.5,20.2,29.91,North,355,3.0,9.0,25,0.00,,,0.00,Wunderground v.1.15,2013-04-03 03:45:00,
2013-04-02 21:50:00,55.4,20.1,29.91,North,355,2.0,2.0,25,0.00,,,0.00,Wunderground v.1.15,2013-04-03 03:50:00,
2013-04-02 21:55:00,55.3,20.0,29.92,North,351,2.0,2.0,25,0.00,,,0.00,Wunderground v.1.15,2013-04-03 03:55:00,
2013-04-02 22:00:00,55.3,20.0,29.92,North,355,2.0,2.0,25,0.00,,,0.00,Wunderground v.1.15,2013-04-03 04:00:00,
2013-04-02 22:05:00,55.2,19.9,29.92,North,5,2.0,2.0,25,0.00,,,0.00,Wunderground v.1.15,2013-04-03 04:05:00,
2013-04-02 22:10:00,55.1,19.9,29.91,North,360,1.0,1.0,25,0.00,,,0.00,Wunderground v.1.15,2013-04-03 04:10:00,
2013-04-02 22:15:00,55.1,19.9,29.92,North,360,0.0,1.0,25,0.00,,,0.00,Wunderground v.1.15,2013-04-03 04:15:00,
2013-04-02 22:20:00,55.0,20.7,29.92,North,360,0.0,1.0,26,0.00,,,0.00,Wunderground v.1.15,2013-04-03 04:20:00,
2013-04-02 22:30:00,54.5,24.4,29.92,NNW,342,1.0,1.0,31,0.00,,,0.00,Wunderground v.1.15,2013-04-03 04:30:00,
2013-04-02 22:35:00,54.2,24.9,29.92,NNW,342,0.0,1.0,32,0.00,,,0.00,Wunderground v.1.15,2013-04-03 04:35:00,
2013-04-02 22:40:00,53.7,25.2,29.92,NNW,343,0.0,0.0,33,0.00,,,0.00,Wunderground v.1.15,2013-04-03 04:40:00,
2013-04-02 22:45:00,53.3,25.6,29.92,NNW,343,0.0,0.0,34,0.00,,,0.00,Wunderground v.1.15,2013-04-03 04:45:00,
2013-04-02 22:50:00,53.1,25.4,29.92,NNW,343,0.0,0.0,34,0.00,,,0.00,Wunderground v.1.15,2013-04-03 04:50:00,
2013-04-02 22:55:00,53.0,25.3,29.92,NNW,343,0.0,2.0,34,0.00,,,0.00,Wunderground v.1.15,2013-04-03 04:55:00,
2013-04-02 23:00:00,52.9,25.3,29.92,NNW,344,0.0,0.0,34,0.00,,,0.00,Wunderground v.1.15,2013-04-03 05:00:00,
2013-04-02 23:05:00,52.9,25.3,29.92,NNW,344,0.0,0.0,34,0.00,,,0.00,Wunderground v.1.15,2013-04-03 05:05:00,
2013-04-02 23:10:00,52.8,25.2,29.92,NNW,344,0.0,0.0,34,0.00,,,0.00,Wunderground v.1.15,2013-04-03 05:10:00,
2013-04-02 23:15:00,52.7,25.8,29.92,NNW,344,0.0,0.0,35,0.00,,,0.00,Wunderground v.1.15,2013-04-03 05:15:00,
2013-04-02 23:20:00,52.6,25.0,29.92,NNW,344,0.0,0.0,34,0.00,,,0.00,Wunderground v.1.15,2013-04-03 05:20:00,
2013-04-02 23:25:00,52.5,25.6,29.92,NNW,344,0.0,0.0,35,0.00,,,0.00,Wunderground v.1.15,2013-04-03 05:25:00,
2013-04-02 23:35:00,52.2,26.7,29.93,SE,125,1.0,2.0,37,0.00,,,0.00,Wunderground v.1.15,2013-04-03 05:35:00,
2013-04-02 23:40:00,52.0,27.1,29.93,SE,130,1.0,1.0,38,0.00,,,0.00,Wunderground v.1.15,2013-04-03 05:40:00,
2013-04-02 23:50:00,51.7,26.9,29.93,SE,131,0.0,1.0,38,0.00,,,0.00,Wunderground v.1.15,2013-04-03 05:50:00,
2013-04-02 23:55:00,51.5,27.3,29.93,SE,138,1.0,1.0,39,0.00,,,0.00,Wunderground v.1.15,2013-04-03 05:55:00,